Powrót do katalogu

STARLINK-34714

AktywnyŁącznośćSSO
NORAD 64939·PAYLOAD·🇺🇸 United States

Wystrzelony Jul 26, 2025 z Vandenberg Space Force Base

Loading…

Następne Przeloty (najbliższe 24 godziny)

TLE

ŚwieżeSource: CelesTrak SupGP

Epoka: Sep 15, 2026, 03:42 UTC

1 64939C 25158H   26258.15465278 -.00020335  00000+0 -63108-3 0  2586
2 64939  97.2844 116.5795 0001819  97.3337 119.7113 15.33456822    15

Śledź STARLINK-34714 w czasie rzeczywistym z AllMySat

Download on the App Store